Regional Weather Roundup
Issued by NWS Cleveland, OH

Home | Current Version | Previous Version | Graphics & Text | Print | Product List | Glossary On
Versions: 1 2 3 4 5 6 7 8 9 10 11 12 13 14 15 16 17 18 19 20 21 22 23 24 25 26 27 28 29 30 31 32 33 34 35 36 37 38 39 40 41 42 43 44 45 46 47 48 49 50
753
ASUS41 KCLE 310200
RWRCLE
OHIO REGIONAL WEATHER ROUNDUP
NATIONAL WEATHER SERVICE WILMINGTON, OH
1000 PM EDT MON MAY 30 2016

NOTE: "FAIR" INDICATES FEW OR NO CLOUDS BELOW 12,000 FEET WITH NO
SIGNIFICANT WEATHER AND/OR OBSTRUCTIONS TO VISIBILITY.

OHZ001>008-015>018-024>027-034-035-043-044-310300-
   NORTHWEST OHIO

CITY           SKY/WX    TMP DP  RH WIND       PRES   REMARKS
DEFIANCE       FAIR      73  58  59 NW5       29.98R
FINDLAY        FAIR      79  50  36 NW5       29.96R
TOLEDO EXPRESS FAIR      69  54  58 CALM      29.97R
TOLEDO EXEC    FAIR      76  51  41 CALM      29.97R
LIMA           FAIR      73  58  59 CALM      29.98R
$$

OHZ009>014-019>023-028>033-038-089-310300-
   NORTHEAST OHIO

CITY           SKY/WX    TMP DP  RH WIND       PRES   REMARKS
CLE-HOPKINS    FAIR      73  55  53 SE3       30.00R
CLE-LAKEFRONT  FAIR      77  53  43 CALM      29.97R
CUY CO. ARPT   PTCLDY    68  59  73 SE5       29.99R
LORAIN-ELYRIA  FAIR      71  57  61 S3        29.98R
ASHTABULA      FAIR      64  60  87 CALM      30.00R
AKRON-CANTON   FAIR      72  54  53 E5        30.00R
WOOSTER        NOT AVBL
MANSFIELD      FAIR      71  59  65 E3        30.00R
YOUNGSTOWN     FAIR      63  56  78 E3        30.00R
$$

OHZ042-051>053-060>062-070>072-077>081-310300-
  SOUTHWEST OHIO

CITY           SKY/WX    TMP DP  RH WIND       PRES   REMARKS
CINC-COVINGTON FAIR      73  59  61 NW5       29.98S
CINC-LUNKEN    FAIR      68  62  81 CALM      29.98R
HAMILTON       FAIR      68  60  75 CALM      29.98R
DAYTON         NOT AVBL
WRIGHT-PAT AFB NOT AVBL
DAYTON GENERAL FAIR      76  52  43 CALM      29.98S
WILMINGTON     FAIR      72  59  63 CALM      29.99R
$$

OHZ036-037-039>041-045>050-054>059-063>069-073>076-082>088-310300-
  CENTRAL AND SOUTHEAST OHIO

CITY           SKY/WX    TMP DP  RH WIND       PRES   REMARKS
COLUMBUS       FAIR      73  57  57 CALM      29.97R
OSU AIRPORT    FAIR      73  56  54 CALM      29.97S
BOLTON FIELD   NOT AVBL
RICKENBACK AFB NOT AVBL
NEWARK         FAIR      70  59  68 CALM      29.98R
MARION         FAIR      72  55  55 CALM      29.98R
LANCASTER      FAIR      64  59  83 SE3       29.99R
ZANESVILLE     FAIR      72  59  63 CALM      29.99R
NEW PHILLY     FAIR      72  61  68 CALM      30.00R
$$




USA.gov is the U.S. government's official web portal to all federal, state and local government web resources and services.